| time (UTC) | temp F | wind direction | speed MPH | gust MPH | rain 1hr in | rain 24hr in | rain mn in | humidity % | barometer mb |
| 20260510203100 | 55 | 307 | 5.0 | 11.0 | 0.00 | 0.00 | 0.00 | 39 | 1016.8 |
| 20260510201600 | 55 | 289 | 4.0 | 12.0 | 0.00 | 0.00 | 0.00 | 37 | 1016.7 |
| 20260510200118 | 55 | 284 | 9.0 | 20.0 | 0.00 | 0.00 | 0.00 | 39 | 1016.9 |
| 20260510194528 | 55 | 293 | 11.0 | 20.0 | 0.00 | 0.00 | 0.00 | 36 | 1016.8 |
| 20260510193039 | 56 | 283 | 8.0 | 23.0 | 0.00 | 0.00 | 0.00 | 36 | 1016.7 |
| 20260510191608 | 56 | 271 | 8.0 | 13.0 | 0.00 | 0.00 | 0.00 | 35 | 1016.8 |
| 20260510190056 | 56 | 283 | 8.0 | 16.0 | 0.00 | 0.00 | 0.00 | 35 | 1016.8 |
| 20260510184552 | 56 | 294 | 5.0 | 16.0 | 0.00 | 0.00 | 0.00 | 36 | 1016.6 |
| 20260510183056 | 55 | 270 | 6.0 | 14.0 | 0.00 | 0.00 | 0.00 | 36 | 1016.6 |
| 20260510181551 | 56 | 271 | 7.0 | 15.0 | 0.00 | 0.00 | 0.00 | 34 | 1016.4 |
| 20260510180050 | 56 | 308 | 7.0 | 15.0 | 0.00 | 0.00 | 0.00 | 36 | 1016.1 |
| 20260510174548 | 56 | 276 | 5.0 | 13.0 | 0.00 | 0.00 | 0.00 | 36 | 1016.2 |
| 20260510173055 | 55 | 284 | 7.0 | 13.0 | 0.00 | 0.00 | 0.00 | 36 | 1016.2 |
| 20260510171553 | 54 | 305 | 10.0 | 19.0 | 0.00 | 0.00 | 0.00 | 34 | 1016.4 |
| 20260510170045 | 55 | 316 | 9.0 | 16.0 | 0.00 | 0.00 | 0.00 | 36 | 1016.4 |
| 20260510164546 | 55 | 321 | 4.0 | 12.0 | 0.00 | 0.00 | 0.00 | 36 | 1016.5 |
| 20260510163040 | 54 | 287 | 8.0 | 16.0 | 0.00 | 0.00 | 0.00 | 38 | 1016.5 |
| 20260510161536 | 54 | 308 | 7.0 | 13.0 | 0.00 | 0.00 | 0.00 | 36 | 1016.5 |
| 20260510160036 | 53 | 11 | 8.0 | 16.0 | 0.00 | 0.00 | 0.00 | 39 | 1016.4 |
| 20260510154539 | 53 | 316 | 8.0 | 21.0 | 0.00 | 0.00 | 0.00 | 40 | 1016.3 |
| 20260510153036 | 52 | 288 | 6.0 | 13.0 | 0.00 | 0.00 | 0.00 | 42 | 1016.3 |
| 20260510151526 | 51 | 301 | 5.0 | 18.0 | 0.00 | 0.00 | 0.00 | 43 | 1016.3 |
| 20260510151524 | 51 | 297 | 5.0 | 18.0 | 0.00 | 0.00 | 0.00 | 43 | 1016.3 |
| 20260510150021 | 51 | 301 | 7.0 | 17.0 | 0.00 | 0.00 | 0.00 | 42 | 1016.1 |
| 20260510144527 | 51 | 274 | 9.0 | 16.0 | 0.00 | 0.00 | 0.00 | 46 | 1016.0 |
| 20260510143013 | 50 | 284 | 6.0 | 13.0 | 0.00 | 0.00 | 0.00 | 46 | 1016.0 |
| 20260510141514 | 49 | 357 | 7.0 | 14.0 | 0.00 | 0.00 | 0.00 | 47 | 1016.0 |
| 20260510140010 | 49 | 295 | 6.0 | 12.0 | 0.00 | 0.00 | 0.00 | 50 | 1016.0 |
| 20260510134507 | 48 | 284 | 7.0 | 15.0 | 0.00 | 0.00 | 0.00 | 51 | 1016.0 |
| 20260510133116 | 48 | 297 | 6.0 | 15.0 | 0.00 | 0.00 | 0.00 | 52 | 1015.9 |
| 20260510131603 | 47 | 281 | 8.0 | 14.0 | 0.00 | 0.00 | 0.00 | 52 | 1015.8 |
| 20260510130054 | 47 | 301 | 4.0 | 10.0 | 0.00 | 0.00 | 0.00 | 56 | 1015.8 |
| 20260510124548 | 46 | 298 | 6.0 | 10.0 | 0.00 | 0.00 | 0.00 | 59 | 1015.8 |
| 20260510123056 | 45 | 280 | 4.0 | 8.0 | 0.00 | 0.01 | 0.00 | 63 | 1015.6 |
| 20260510121537 | 44 | 269 | 4.0 | 8.0 | 0.00 | 0.01 | 0.00 | 65 | 1015.4 |
| 20260510120034 | 43 | 276 | 3.0 | 8.0 | 0.00 | 0.01 | 0.00 | 68 | 1015.3 |
| 20260510114529 | 43 | 278 | 4.0 | 7.0 | 0.00 | 0.01 | 0.00 | 68 | 1015.1 |
| 20260510113024 | 43 | 306 | 3.0 | 5.0 | 0.00 | 0.01 | 0.00 | 68 | 1014.9 |
| 20260510111518 | 42 | 307 | 2.0 | 4.0 | 0.00 | 0.01 | 0.00 | 69 | 1014.6 |
| 20260510110013 | 41 | 307 | 2.0 | 5.0 | 0.00 | 0.01 | 0.00 | 72 | 1014.3 |
| 20260510104509 | 0 | 0.0 | 0.0 | 0.00 | 0.01 | 0.00 | 1014.1 | ||
| 20260510103002 | 0 | 0.0 | 0.0 | 0.00 | 0.01 | 0.00 | 1013.9 | ||
| 20260510101558 | 0 | 0.0 | 0.0 | 0.00 | 0.01 | 0.00 | 1013.7 | ||
| 20260510100054 | 0 | 0.0 | 0.0 | 0.00 | 0.01 | 0.00 | 1013.5 | ||
| 20260510094551 | 38 | 307 | 2.0 | 4.0 | 0.00 | 0.01 | 0.00 | 73 | 1013.7 |
| 20260510093044 | 40 | 307 | 1.0 | 3.0 | 0.00 | 0.01 | 0.01 | 72 | 1013.5 |
| 20260510091541 | 40 | 307 | 1.0 | 3.0 | 0.00 | 0.01 | 0.01 | 69 | 1013.2 |
| 20260510090037 | 41 | 307 | 2.0 | 5.0 | 0.00 | 0.01 | 0.01 | 68 | 1012.9 |
| 20260510084537 | 41 | 316 | 3.0 | 7.0 | 0.00 | 0.01 | 0.01 | 67 | 1012.8 |
| 20260510083003 | 41 | 318 | 4.0 | 8.0 | 0.00 | 0.01 | 0.01 | 65 | 1012.6 |
| 20260510081501 | 42 | 349 | 2.0 | 7.0 | 0.00 | 0.01 | 0.01 | 63 | 1012.4 |
| 20260510080027 | 42 | 352 | 4.0 | 12.0 | 0.00 | 0.01 | 0.01 | 62 | 1012.4 |
| 20260510074525 | 43 | 324 | 6.0 | 11.0 | 0.00 | 0.01 | 0.01 | 63 | 1012.3 |
| 20260510073027 | 43 | 333 | 6.0 | 11.0 | 0.00 | 0.01 | 0.01 | 64 | 1012.0 |
| 20260510071517 | 43 | 322 | 4.0 | 12.0 | 0.00 | 0.01 | 0.01 | 62 | 1011.7 |
| 20260510070016 | 43 | 330 | 5.0 | 8.0 | 0.00 | 0.01 | 0.01 | 64 | 1011.6 |
| 20260510064514 | 43 | 325 | 3.0 | 6.0 | 0.00 | 0.01 | 0.01 | 64 | 1011.3 |
| 20260510063010 | 43 | 330 | 4.0 | 9.0 | 0.00 | 0.01 | 0.01 | 63 | 1011.3 |
| 20260510061508 | 43 | 330 | 3.0 | 11.0 | 0.00 | 0.01 | 0.01 | 63 | 1011.2 |
| 20260510060006 | 44 | 352 | 3.0 | 9.0 | 0.00 | 0.01 | 0.01 | 61 | 1011.0 |
| 20260510054501 | 44 | 333 | 3.0 | 8.0 | 0.00 | 0.01 | 0.01 | 59 | 1011.1 |
| 20260510053056 | 45 | 353 | 5.0 | 11.0 | 0.00 | 0.01 | 0.01 | 58 | 1010.8 |
| 20260510051556 | 46 | 333 | 6.0 | 14.0 | 0.00 | 0.01 | 0.01 | 57 | 1010.5 |
| 20260510050049 | 46 | 334 | 4.0 | 11.0 | 0.00 | 0.01 | 0.01 | 54 | 1010.2 |
| 20260510044550 | 48 | 352 | 7.0 | 15.0 | 0.00 | 0.01 | 0.01 | 53 | 1010.0 |
| 20260510043041 | 48 | 352 | 11.0 | 19.0 | 0.00 | 0.01 | 0.01 | 60 | 1009.6 |
| 20260510041542 | 48 | 348 | 4.0 | 11.0 | 0.00 | 0.01 | 0.01 | 51 | 1009.4 |
| 20260510040036 | 49 | 342 | 8.0 | 14.0 | 0.00 | 0.01 | 0.01 | 50 | 1009.2 |
| 20260510034536 | 50 | 1 | 9.0 | 18.0 | 0.00 | 0.01 | 0.01 | 51 | 1009.0 |
| 20260510033031 | 50 | 11 | 8.0 | 20.0 | 0.00 | 0.01 | 0.01 | 51 | 1008.8 |
| 20260510031531 | 51 | 333 | 8.0 | 15.0 | 0.00 | 0.01 | 0.01 | 50 | 1008.3 |
| 20260510030022 | 51 | 353 | 6.0 | 13.0 | 0.00 | 0.01 | 0.01 | 53 | 1008.0 |
| 20260510024520 | 51 | 338 | 5.0 | 9.0 | 0.00 | 0.01 | 0.01 | 55 | 1007.7 |
| 20260510023016 | 51 | 330 | 3.0 | 8.0 | 0.00 | 0.01 | 0.01 | 55 | 1007.4 |
| 20260510021523 | 52 | 352 | 2.0 | 5.0 | 0.00 | 0.01 | 0.01 | 54 | 1007.0 |
| 20260510020010 | 53 | 356 | 2.0 | 6.0 | 0.00 | 0.01 | 0.01 | 53 | 1006.6 |
| 20260510014507 | 53 | 352 | 4.0 | 8.0 | 0.00 | 0.01 | 0.01 | 52 | 1006.3 |
| 20260510013003 | 54 | 332 | 5.0 | 8.0 | 0.00 | 0.01 | 0.01 | 52 | 1005.9 |
| 20260510011557 | 54 | 351 | 5.0 | 9.0 | 0.00 | 0.01 | 0.01 | 55 | 1005.5 |
| 20260510010056 | 55 | 350 | 5.0 | 12.0 | 0.00 | 0.01 | 0.01 | 53 | 1005.2 |
| 20260510004552 | 55 | 352 | 7.0 | 17.0 | 0.00 | 0.01 | 0.01 | 54 | 1004.9 |
| 20260510003052 | 57 | 6 | 8.0 | 19.0 | 0.00 | 0.01 | 0.01 | 53 | 1004.4 |
| 20260510001550 | 58 | 358 | 11.0 | 16.0 | 0.00 | 0.01 | 0.01 | 48 | 1004.1 |
| 20260510000043 | 59 | 334 | 7.0 | 19.0 | 0.00 | 0.01 | 0.01 | 43 | 1003.7 |
| 20260509234540 | 60 | 303 | 13.0 | 27.0 | 0.00 | 0.01 | 0.01 | 42 | 1003.3 |
| 20260509233040 | 59 | 332 | 9.0 | 22.0 | 0.00 | 0.01 | 0.01 | 47 | 1002.9 |
| 20260509231506 | 60 | 295 | 10.0 | 23.0 | 0.00 | 0.01 | 0.01 | 45 | 1002.7 |
| 20260509230003 | 61 | 290 | 16.0 | 27.0 | 0.00 | 0.01 | 0.01 | 42 | 1002.3 |
| 20260509224537 | 62 | 309 | 10.0 | 26.0 | 0.00 | 0.01 | 0.01 | 42 | 1002.0 |
| 20260509223032 | 63 | 303 | 14.0 | 24.0 | 0.00 | 0.01 | 0.01 | 38 | 1001.6 |
| 20260509221529 | 63 | 299 | 15.0 | 27.0 | 0.00 | 0.01 | 0.01 | 38 | 1001.2 |
| 20260509220027 | 63 | 298 | 11.0 | 18.0 | 0.00 | 0.01 | 0.01 | 43 | 1001.0 |
| 20260509214526 | 64 | 283 | 12.0 | 27.0 | 0.00 | 0.01 | 0.01 | 44 | 1000.8 |
| 20260509213027 | 64 | 277 | 12.0 | 25.0 | 0.00 | 0.01 | 0.01 | 42 | 1000.5 |
| 20260509211527 | 64 | 283 | 9.0 | 19.0 | 0.00 | 0.01 | 0.01 | 44 | 1000.4 |
| 20260509210030 | 64 | 283 | 12.0 | 21.0 | 0.00 | 0.01 | 0.01 | 43 | 1000.3 |
| 20260509204522 | 64 | 277 | 10.0 | 26.0 | 0.00 | 0.01 | 0.01 | 43 | 1000.1 |